Location: Nelson
(41.2830°S, 173.2830°E)
Time: 16:12:40
(UTC+12:00)

Meteor 2-8 Rocket - Pass Details

Date: 14 May 2021
Orbit: 936 x 958 km, 82.5° (Epoch: 19 June)

Event Time Altitude Azimuth Distance (km) Brightness Sun altitude
Rises 17:52:11 0° 186° (S) 3,677 7.4 -6.6°
Reaches altitude 10° 17:54:44 10° 182° (S) 2,724 6.7 -7.1°
Maximum altitude 18:00:57 64° 100° (E) 1,065 4.5 -8.2°
Drops below altitude 10° 18:07:03 10° 19° (NNE) 2,684 6.8 -9.3°
Sets 18:09:33 0° 15° (NNE) 3,618 7.5 -9.7°
